User: anonymous   Login
Location: Drocourt
(49.0571°N, 1.7669°E)
Time: 09:37:26
(UTC+00:00)
Language:

Cosmos 1340 - Orbit

View from above orbital plane
View from above orbital plane
View from above satellite
View from above satellite

Ground track
Ground track

The orbit data is extracted from the following two-line orbital elements,

1 13067U 82013A   23151.94069213  .00011280  00000-0  38799-3 0  9998
2 13067  81.1814 110.0813 0005131  60.6039 299.5709 15.29947006258188
Epoch (UTC): 31 May 2023 22:34:35
Eccentricity: 0.0005131
inclination: 81.1814°
perigee height: 472 km
apogee height: 479 km
right ascension of ascending node: 110.0813°
argument of perigee: 60.6039°
revolutions per day: 15.29947006
mean anomaly at epoch: 299.5709°
orbit number at epoch: 25818

The dashed part of the orbit path shows where the satellite is in the earth's shadow,  

DLR